User: anonymous   Login
Location: Bodest
(46.3000°N, 22.5667°E)
Time: 14:38:50
(UTC+00:00)
Language:

Feng Yun 1-1 Rocket - Orbit

View from above orbital plane
View from above orbital plane
View from above satellite
View from above satellite

Ground track
Ground track

The orbit data is extracted from the following two-line orbital elements,

1 19468U 88080B   22023.08542274  .00000165  00000-0  13113-3 0  9997
2 19468  99.1780  54.1047 0072225  66.3013 305.8864 14.03532475709084
Epoch (UTC): 23 January 2022 02:03:00
Eccentricity: 0.0072225
inclination: 99.1780°
perigee height: 829 km
apogee height: 934 km
right ascension of ascending node: 54.1047°
argument of perigee: 66.3013°
revolutions per day: 14.03532475
mean anomaly at epoch: 305.8864°
orbit number at epoch: 70908

The dashed part of the orbit path shows where the satellite is in the earth's shadow,  

DLR